#timestamp,LO_Frequency,Hit 
1499605215.2,286046975.8,N
1499605235.1,286046976.3,N
1499605236.0,286046976.3,N
1499605255.8,286046978.3,N
1499605275.6,286046975.7,N
1499605295.5,286046978.8,N
1499605315.3,286046976.4,N
1499605335.1,286046974.5,N
1499605355.9,286046976.1,N
1499605375.7,286046977.9,N
1499605395.5,286046980.4,N
1499605415.3,286046980.2,N
1499605435.2,286046979.8,N
1499605455.0,286046980.8,N
1499605455.9,286046980.8,N
1499605475.8,286046981.4,N
1499605495.6,286046982.0,N
1499605515.4,286046981.9,N
1499605535.2,286046981.6,N
1499605555.1,286046978.9,N
1499605556.0,286046978.9,N
1499605575.8,286046981.7,N
1499605595.6,286046979.5,N
1499605615.5,286046979.0,N
1499605635.3,286046981.6,N
1499605655.1,286046979.6,N
1499605675.9,286046977.4,N
1499605695.7,286046977.3,N
1499605715.5,286046980.2,N
1499605735.4,286046979.7,N
1499605755.2,286046977.9,N
1499605775.0,286046980.1,N
1499605775.9,286046980.1,N
1499605795.8,286046979.6,N
1499605815.6,286046977.9,N
1499605835.4,286046977.5,N
1499605855.3,286046979.5,N
1499605875.1,286046977.7,N
1499605876.0,286046977.7,N
1499605895.8,286046976.2,N
1499605915.7,286046974.5,N
1499605935.5,286046975.6,N
1499605955.3,286046973.3,N
1499605975.2,286046973.8,N
1499605995.9,286046973.5,N
1499606015.7,286046972.7,N
1499606035.6,286046972.6,N
1499606055.4,286046975.6,N
1499606075.2,286046975.2,N
1499606095.0,286046974.3,N
1499606095.9,286046974.3,N
1499606115.8,286046975.1,N
1499606135.6,286046975.1,N
1499606155.4,286046975.5,N
1499606175.3,286046973.0,N
1499606195.1,286046970.9,N
1499606215.8,286046970.1,N
1499606235.7,286046970.6,N
1499606255.5,286046967.7,N
1499606275.3,286046968.2,N
1499606295.2,286046970.5,N
1499606315.9,286046970.7,N
1499606335.7,286046968.7,N
1499606355.5,286046968.9,N
1499606375.4,286046966.6,N
1499606395.2,286046968.9,N
1499606415.0,286046969.1,N
1499606415.9,286046969.1,N
1499606435.8,286046966.3,N
1499606455.6,286046968.8,N
1499606475.4,286046966.8,N
1499606495.3,286046964.6,N
1499606515.1,286046965.4,N
1499606535.8,286046964.8,N
1499606555.7,286046965.0,N
1499606575.5,286046965.0,N
1499606595.3,286046964.7,N
1499606615.2,286046965.2,N
1499606635.9,286046965.3,N
1499606655.7,286046965.0,N
1499606675.5,286046965.4,N
1499606695.4,286046963.3,N
1499606715.2,286046964.0,N
1499606735.0,286046964.0,N
1499606735.9,286046964.0,N
1499606755.8,286046962.1,N
1499606775.6,286046962.4,N
1499606795.4,286046961.8,N
1499606815.3,286046964.3,N
1499606835.1,286046961.9,N
1499606855.8,286046962.6,N
1499606875.7,286046959.8,N
1499606895.5,286046960.3,N
1499606915.3,286046961.2,N
1499606935.2,286046958.4,N
1499606955.9,286046958.8,N
1499606975.7,286046958.8,N
1499606995.6,286046959.0,N
1499607015.4,286046959.3,N
1499607035.2,286046956.9,N
1499607055.0,286046959.5,N
1499607055.9,286046959.5,N
1499607075.8,286046959.6,N
1499607095.6,286046957.0,N
1499607115.4,286046957.4,N
1499607135.3,286046957.6,N
1499607155.1,286046957.7,N
1499607175.8,286046957.4,N
1499607195.7,286046957.6,N
1499607215.5,286046958.0,N
1499607235.3,286046957.6,N
1499607255.2,286046955.6,N
1499607275.9,286046955.7,N
1499607295.7,286046955.7,N
1499607315.6,286046955.6,N
1499607335.4,286046957.6,N
1499607355.2,286046956.8,N
1499607375.0,286046957.1,N
1499607375.9,286046957.1,N
1499607395.8,286046959.1,N
1499607415.6,286046957.0,N
1499607435.4,286046955.0,N
1499607455.3,286046956.2,N
1499607475.1,286046953.4,N
1499607495.8,286046954.0,N
1499607515.7,286046954.5,N
1499607535.5,286046954.2,N
1499607555.3,286046952.4,N
1499607575.2,286046952.3,N
1499607595.9,286046952.7,N
1499607615.7,286046950.7,N
1499607635.6,286046950.5,N
1499607655.4,286046953.1,N
1499607675.2,286046950.4,N
1499607695.0,286046952.8,N
1499607696.0,286046952.8,N
1499607715.8,286046952.7,N
1499607735.6,286046954.8,N
1499607755.4,286046954.1,N
1499607775.3,286046954.7,N
1499607795.1,286046952.6,N
1499607815.8,286046950.2,N
1499607835.7,286046950.9,N
1499607855.5,286046950.7,N
1499607875.3,286046948.5,N
1499607895.2,286046948.7,N
1499607915.9,286046949.2,N
1499607935.7,286046948.7,N
1499607955.6,286046949.9,N
1499607975.4,286046949.4,N
1499607995.2,286046949.4,N
1499608015.1,286046949.8,N
1499608016.0,286046949.8,N
1499608035.8,286046949.4,N
1499608055.6,286046949.4,N
1499608075.4,286046948.6,N
1499608095.3,286046951.1,N
1499608115.1,286046950.2,N
1499608135.8,286046950.2,N
1499608155.7,286046953.2,N
1499608175.5,286046950.9,N
1499608195.3,286046948.8,N
1499608215.2,286046949.4,N
1499608235.9,286046949.7,N
1499608255.7,286046948.1,N
1499608275.6,286046947.6,N
1499608295.4,286046948.1,N
1499608315.2,286046947.2,N
1499608335.1,286046947.3,N
1499608336.0,286046947.3,N
1499608355.8,286046947.0,N
1499608375.6,286046945.6,N
1499608395.5,286046946.5,N
1499608415.3,286046943.9,N
1499608435.1,286046943.7,N
1499608455.9,286046944.6,N
1499608475.7,286046946.3,N
1499608495.5,286046945.5,N
1499608515.4,286046944.4,N
1499608535.2,286046944.0,N
1499608555.0,286046944.0,N
1499608555.9,286046944.0,N
1499608575.7,286046944.0,N
1499608595.6,286046942.5,N
1499608615.4,286046943.3,N
1499608635.2,286046943.6,N
1499608655.1,286046941.4,N
1499608656.0,286046941.4,N
1499608675.8,286046938.9,N
1499608695.6,286046941.5,N
1499608715.5,286046941.6,N
1499608735.3,286046939.3,N
1499608755.1,286046939.8,N
1499608775.9,286046940.2,N
1499608795.7,286046938.6,N
